User: anonymous   Login
Location: Unspecified
(0.0000°N, 0.0000°E)
Time: 23:08:14
(UTC+00:00)
Language:

YUBILEINY - Orbit

View from above orbital plane
View from above orbital plane
View from above satellite
View from above satellite

Ground track
Ground track

The orbit data is extracted from the following two-line orbital elements,

1 32953U 08025A   21125.81329507  .00000028  00000-0  12906-3 0  9994
2 32953  82.5018  77.4449 0020734  70.2389 290.0925 12.43101526587684
Epoch (UTC): 05 May 2021 19:31:08
Eccentricity: 0.0020734
inclination: 82.5018°
perigee height: 1477 km
apogee height: 1510 km
right ascension of ascending node: 77.4449°
argument of perigee: 70.2389°
revolutions per day: 12.43101526
mean anomaly at epoch: 290.0925°
orbit number at epoch: 58768

The dashed part of the orbit path shows where the satellite is in the earth's shadow,  

DLR